EW6430 Weather Reports


time (UTC)temp
C
wind
direction
speed
KPH
gust
KPH
rain 1hr
cm
rain 24hr
cm
rain mn
cm
humidity
%
barometer
mb
20260902103430 22 250 6.4 12.9 0.00 0.00 0.00 59 1019.5
20260902103109 22 245 4.8 16.1 0.00 0.00 0.00 59 1019.3
20260902102914 23 235 8.0 17.7 0.00 0.00 0.00 62 1019.5
20260902101519 22 222 3.2 11.3 0.00 0.00 0.00 62 1019.5
20260902101342 22 276 4.8 16.1 0.00 0.00 0.00 61 1019.8
20260902100830 22 248 6.4 16.1 0.00 0.00 0.00 62 1019.8
20260902100051 22 232 3.2 14.5 0.00 0.00 0.00 63 1019.6
20260902095809 22 184 6.4 14.5 0.00 0.00 0.00 61 1019.8
20260902095250 22 223 6.4 14.5 0.00 0.00 0.00 61 1019.8
20260902094726 22 170 8.0 14.5 0.00 0.00 0.00 62 1019.8
20260902094501 22 154 3.2 14.5 0.00 0.00 0.00 61 1019.6
20260902094221 22 169 9.7 14.5 0.00 0.00 0.00 60 1019.8
20260902093719 22 208 6.4 14.5 0.00 0.00 0.00 60 1019.8
20260902093207 22 160 4.8 11.3 0.00 0.00 0.00 61 1019.9
20260902093041 22 244 3.2 11.3 0.00 0.00 0.00 62 1019.7
20260902092654 22 184 4.8 9.7 0.00 0.00 0.00 63 1019.9
20260902092152 22 232 4.8 8.0 0.00 0.00 0.00 65 1019.9
20260902091652 22 215 3.2 9.7 0.00 0.00 0.00 62 1019.9
20260902091528 21 216 4.8 9.7 0.00 0.00 0.00 63 1019.7
20260902091137 22 153 3.2 8.0 0.00 0.00 0.00 64 1020.0
20260902090632 21 240 4.8 11.3 0.00 0.00 0.00 65 1020.0
20260902090125 21 233 4.8 11.3 0.00 0.00 0.00 63 1020.1
20260902090100 21 233 4.8 11.3 0.00 0.00 0.00 62 1019.9
20260902085614 21 248 4.8 12.9 0.00 0.00 0.00 65 1020.1
20260902085108 21 188 6.4 17.7 0.00 0.00 0.00 65 1020.1
20260902084602 20 213 8.0 17.7 0.00 0.00 0.00 67 1020.1
20260902084542 20 219 4.8 17.7 0.00 0.00 0.00 67 1019.9
20260902084059 20 240 8.0 17.7 0.00 0.00 0.00 66 1020.1
20260902083551 20 231 6.4 12.9 0.00 0.00 0.00 69 1020.2
20260902083048 20 158 6.4 14.5 0.00 0.00 0.00 69 1020.2
20260902083022 20 157 6.4 12.9 0.00 0.00 0.00 69 1020.0
20260902082539 20 242 4.8 14.5 0.00 0.00 0.00 69 1020.3
20260902082030 20 236 4.8 12.9 0.00 0.00 0.00 69 1020.3
20260902081548 20 284 0.0 12.9 0.00 0.00 0.00 73 1020.1
20260902081001 20 236 4.8 11.3 0.00 0.00 0.00 72 1020.2
20260902080448 19 228 4.8 9.7 0.00 0.00 0.00 72 1020.2
20260902080015 19 242 1.6 8.0 0.00 0.00 0.00 74 1020.0
20260902075934 19 250 3.2 6.4 0.00 0.00 0.00 74 1020.2
20260902075424 19 240 3.2 8.0 0.00 0.00 0.00 73 1020.2
20260902074906 19 237 3.2 11.3 0.00 0.00 0.00 73 1020.2
20260902074636 19 238 1.6 6.4 0.00 0.00 0.00 74 1020.0
20260902074354 19 239 4.8 11.3 0.00 0.00 0.00 75 1020.2
20260902073846 18 240 4.8 11.3 0.00 0.00 0.00 74 1020.1
20260902073334 18 242 4.8 11.3 0.00 0.00 0.00 74 1020.1
20260902073002 18 236 3.2 8.0 0.00 0.00 0.00 75 1019.9
20260902072823 18 207 4.8 8.0 0.00 0.00 0.00 76 1020.0
20260902071532 17 204 3.2 8.0 0.00 0.00 0.00 77 1019.8
20260902071251 17 211 3.2 8.0 0.00 0.00 0.00 77 1020.0
20260902070736 17 224 3.2 6.4 0.00 0.00 0.00 79 1020.0
20260902070225 17 232 3.2 6.4 0.00 0.00 0.00 82 1020.0
20260902070057 17 232 1.6 6.4 0.00 0.00 0.00 82 1019.8
20260902065706 17 219 3.2 4.8 0.00 0.00 0.00 82 1020.0
20260902065156 16 189 1.6 4.8 0.00 0.00 0.00 83 1019.9
20260902064528 16 188 0.0 4.8 0.00 0.00 0.00 83 1019.8
20260902064142 16 188 1.6 6.4 0.00 0.00 0.00 84 1019.9
20260902063624 16 195 3.2 4.8 0.00 0.00 0.00 84 1020.0
20260902063110 16 183 3.2 8.0 0.00 0.00 0.00 84 1019.9
20260902063058 15 183 3.2 8.0 0.00 0.00 0.00 84 1019.8
20260902062558 15 238 1.6 8.0 0.00 0.00 0.00 84 1020.0
20260902062048 15 116 0.0 3.2 0.00 0.00 0.00 86 1019.9
20260902061519 15 116 0.0 3.2 0.00 0.00 0.00 87 1019.7
20260902061034 15 116 1.6 4.8 0.00 0.00 0.00 87 1019.9
20260902060522 15 116 3.2 4.8 0.00 0.00 0.00 87 1019.9
20260902060048 14 206 1.6 4.8 0.00 0.00 0.00 88 1019.7
20260902060011 14 206 1.6 4.8 0.00 0.00 0.00 88 1019.9
20260902054503 13 177 0.0 4.8 0.00 0.00 0.00 91 1019.7
20260902054426 13 177 1.6 4.8 0.00 0.00 0.00 91 1019.9
20260902053912 13 177 1.6 4.8 0.00 0.00 0.00 92 1019.9
20260902053356 13 181 1.6 6.4 0.00 0.00 0.00 93 1019.9
20260902053022 13 182 1.6 6.4 0.00 0.00 0.00 94 1019.7
20260902052843 13 186 3.2 4.8 0.00 0.00 0.00 94 1019.9
20260902052329 13 200 1.6 4.8 0.00 0.00 0.00 95 1019.9
20260902051815 12 219 1.6 4.8 0.00 0.00 0.00 95 1019.8
20260902051556 12 219 0.0 4.8 0.00 0.00 0.00 95 1019.6
20260902051258 12 219 0.0 4.8 0.00 0.00 0.00 95 1019.7
20260902050747 12 219 0.0 3.2 0.00 0.00 0.00 95 1019.7
20260902050230 12 192 0.0 3.2 0.00 0.00 0.00 95 1019.6
20260902050002 11 192 0.0 3.2 0.00 0.00 0.00 95 1019.5
20260902045722 12 192 0.0 1.6 0.00 0.00 0.00 95 1019.6
20260902045205 12 192 0.0 1.6 0.00 0.00 0.00 96 1019.6
20260902044553 12 192 0.0 1.6 0.00 0.00 0.00 96 1019.5
20260902043047 11 192 0.0 3.2 0.00 0.00 0.00 96 1019.4
20260902042553 11 192 0.0 3.2 0.00 0.00 0.00 97 1019.5
20260902042036 11 188 1.6 3.2 0.00 0.00 0.00 97 1019.6
20260902041604 11 188 1.6 4.8 0.00 0.00 0.00 97 1019.4
20260902041523 11 188 1.6 4.8 0.00 0.00 0.00 97 1019.6
20260902041008 11 188 1.6 4.8 0.00 0.00 0.00 97 1019.6
20260902040454 11 229 1.6 4.8 0.00 0.00 0.00 97 1019.6
20260902040016 11 234 1.6 4.8 0.00 0.00 0.00 97 1019.5
20260902035938 11 234 0.0 4.8 0.00 0.00 0.00 97 1019.6
20260902035424 11 234 1.6 3.2 0.00 0.00 0.00 97 1019.6
20260902034908 11 234 1.6 3.2 0.00 0.00 0.00 97 1019.6
20260902034528 11 234 0.0 4.8 0.00 0.00 0.00 97 1019.4
20260902033048 10 250 1.6 4.8 0.00 0.00 0.00 97 1019.4
20260902032804 11 302 0.0 3.2 0.00 0.00 0.00 97 1019.5
20260902031737 10 312 0.0 1.6 0.00 0.00 0.00 97 1019.5
20260902031537 10 312 0.0 1.6 0.00 0.00 0.00 97 1019.3
20260902031235 10 312 0.0 1.6 0.00 0.00 0.00 97 1019.5
20260902030735 10 312 0.0 0.0 0.00 0.00 0.00 97 1019.5
20260902030233 10 312 0.0 1.6 0.00 0.00 0.00 97 1019.5
20260902030010 10 312 0.0 1.6 0.00 0.00 0.00 97 1019.3
20260902025731 10 312 0.0 1.6 0.00 0.00 0.00 97 1019.4
20260902025230 10 312 0.0 1.6 0.00 0.00 0.00 97 1019.4
20260902024720 10 312 0.0 1.6 0.00 0.00 0.00 97 1019.4
20260902024559 10 312 0.0 1.6 0.00 0.00 0.00 97 1019.2
20260902024207 10 312 0.0 1.6 0.00 0.00 0.00 97 1019.4
20260902023141 10 312 0.0 1.6 0.00 0.00 0.00 97 1019.5
20260902023022 10 312 0.0 1.6 0.00 0.00 0.00 97 1019.3
20260902022627 10 312 0.0 0.0 0.00 0.00 0.00 97 1019.6
20260902021621 10 312 0.0 3.2 0.00 0.00 0.00 97 1019.6
20260902021602 10 312 0.0 0.0 0.00 0.00 0.00 97 1019.5
20260902021120 10 312 0.0 3.2 0.00 0.00 0.00 97 1019.6
20260902020606 10 312 0.0 3.2 0.00 0.00 0.00 97 1019.6
20260902020117 10 312 0.0 3.2 0.00 0.00 0.00 97 1019.6
20260902020042 10 312 0.0 3.2 0.00 0.00 0.00 97 1019.4
20260902015556 10 312 0.0 0.0 0.00 0.00 0.00 97 1019.6
20260902015044 10 312 0.0 0.0 0.00 0.00 0.00 97 1019.6
20260902014604 10 312 0.0 0.0 0.00 0.00 0.00 97 1019.4
20260902014525 10 312 0.0 0.0 0.00 0.00 0.00 97 1019.5
20260902014019 10 312 0.0 0.0 0.00 0.00 0.00 96 1019.7
20260902013512 10 312 0.0 0.0 0.00 0.00 0.00 97 1019.6
20260902013040 10 312 0.0 0.0 0.00 0.00 0.00 97 1019.5
20260902013001 10 312 0.0 0.0 0.00 0.00 0.00 97 1019.6
20260902012459 10 312 0.0 0.0 0.00 0.00 0.00 97 1019.7
20260902011950 10 312 0.0 0.0 0.00 0.00 0.00 96 1019.7
20260902011529 10 312 0.0 0.0 0.00 0.00 0.00 96 1019.5
20260902011446 10 312 0.0 0.0 0.00 0.00 0.00 96 1019.7
20260902010941 10 312 0.0 0.0 0.00 0.00 0.00 96 1019.7
20260902010424 10 312 0.0 0.0 0.00 0.00 0.00 96 1019.5
20260902010105 10 312 0.0 0.0 0.00 0.00 0.00 96 1019.4
20260902005922 10 312 0.0 0.0 0.00 0.00 0.00 96 1019.6
20260902005419 10 312 0.0 0.0 0.00 0.00 0.00 96 1019.6
20260902004914 10 312 0.0 0.0 0.00 0.00 0.00 96 1019.6
20260902004648 10 312 0.0 0.0 0.00 0.00 0.00 96 1019.4
20260902003854 10 312 0.0 0.0 0.00 0.00 0.00 96 1019.6
20260902003351 10 312 0.0 0.0 0.00 0.00 0.00 96 1019.5
20260902003125 10 312 0.0 0.0 0.00 0.00 0.00 96 1019.3
20260902002840 10 312 0.0 0.0 0.00 0.00 0.00 96 1019.6
20260902002336 10 312 0.0 0.0 0.00 0.00 0.00 96 1019.6
20260902001837 10 312 0.0 0.0 0.00 0.00 0.00 96 1019.5
20260902001508 10 312 0.0 0.0 0.00 0.00 0.00 96 1019.3
20260902001325 10 312 0.0 0.0 0.00 0.00 0.00 96 1019.6
20260902000301 11 312 0.0 3.2 0.00 0.00 0.00 96 1019.5
20260902000019 10 312 0.0 3.2 0.00 0.00 0.00 96 1019.2
20260901235228 11 312 0.0 0.0 0.00 0.00 0.00 96 1019.5
20260901234717 11 312 0.0 0.0 0.00 0.00 0.00 96 1019.5
20260901234555 10 312 0.0 0.0 0.00 0.00 0.00 96 1019.2
20260901234203 11 312 0.0 0.0 0.00 0.00 0.00 96 1019.5
20260901233651 11 312 0.0 0.0 0.00 0.00 0.00 96 1019.5
20260901233012 11 312 0.0 0.0 0.00 0.00 0.00 96 1019.2
20260901232625 11 312 0.0 0.0 0.00 0.00 0.00 96 1019.4
20260901231545 11 312 0.0 0.0 0.00 0.00 0.00 96 1019.2
20260901230535 11 312 0.0 1.6 0.00 0.00 0.00 95 1019.6
20260901230108 11 312 0.0 0.0 0.00 0.00 0.00 95 1019.3
20260901225509 11 312 0.0 0.0 0.00 0.00 0.00 95 1019.5
20260901225008 11 312 0.0 0.0 0.00 0.00 0.00 95 1019.5
20260901224523 11 312 0.0 0.0 0.00 0.00 0.00 95 1019.3
20260901224005 11 312 0.0 0.0 0.00 0.00 0.00 95 1019.6
20260901223027 11 312 0.0 0.0 0.00 0.00 0.00 95 1019.3
20260901222439 11 312 0.0 0.0 0.00 0.00 0.00 95 1019.5
20260901221930 11 312 0.0 0.0 0.00 0.00 0.00 95 1019.5
20260901221610 11 312 0.0 0.0 0.00 0.00 0.00 95 1019.2
20260901221418 11 312 0.0 0.0 0.00 0.00 0.00 95 1019.4
20260901220918 11 312 0.0 0.0 0.00 0.00 0.00 95 1019.4
20260901220405 11 312 0.0 0.0 0.00 0.00 0.00 95 1019.4
20260901220031 11 312 0.0 0.0 0.00 0.00 0.00 95 1019.2
20260901215336 12 312 0.0 0.0 0.00 0.00 0.00 95 1019.4
20260901214825 12 312 0.0 0.0 0.00 0.00 0.00 94 1019.4
20260901214556 11 312 0.0 0.0 0.00 0.00 0.00 95 1019.1
20260901214317 12 312 0.0 0.0 0.00 0.00 0.00 94 1019.4
20260901213805 12 312 0.0 0.0 0.00 0.00 0.00 94 1019.4
20260901213249 12 312 0.0 0.0 0.00 0.00 0.00 94 1019.4
20260901213026 12 312 0.0 0.0 0.00 0.00 0.00 94 1019.1
20260901212737 12 312 0.0 0.0 0.00 0.00 0.00 94 1019.4
20260901212224 12 312 0.0 0.0 0.00 0.00 0.00 94 1019.4
20260901211714 12 312 0.0 3.2 0.00 0.00 0.00 94 1019.4
20260901211546 12 312 0.0 0.0 0.00 0.00 0.00 94 1019.2
20260901210656 12 312 0.0 3.2 0.00 0.00 0.00 94 1019.5
20260901210156 12 312 0.0 3.2 0.00 0.00 0.00 94 1019.5
20260901210050 12 312 0.0 3.2 0.00 0.00 0.00 94 1019.2
20260901205656 12 312 0.0 3.2 0.00 0.00 0.00 94 1019.5
20260901205147 12 312 0.0 3.2 0.00 0.00 0.00 93 1019.5
20260901204631 12 312 0.0 0.0 0.00 0.00 0.00 93 1019.4
20260901204504 12 312 0.0 1.6 0.00 0.00 0.00 93 1019.2
20260901204118 12 312 0.0 1.6 0.00 0.00 0.00 93 1019.4
20260901203610 13 312 0.0 1.6 0.00 0.00 0.00 93 1019.4
20260901203058 13 312 0.0 1.6 0.00 0.00 0.00 93 1019.4
20260901203034 12 312 0.0 1.6 0.00 0.00 0.00 93 1019.1
20260901202548 13 312 0.0 1.6 0.00 0.00 0.00 93 1019.4
20260901202034 13 312 0.0 1.6 0.00 0.00 0.00 93 1019.3
20260901201558 13 312 0.0 1.6 0.00 0.00 0.00 93 1019.0
20260901201521 13 312 0.0 1.6 0.00 0.00 0.00 93 1019.3
20260901201004 13 312 0.0 1.6 0.00 0.00 0.00 93 1019.3
20260901200450 13 312 0.0 1.6 0.00 0.00 0.00 92 1019.3
20260901200004 13 312 0.0 1.6 0.00 0.00 0.00 92 1019.0
20260901195414 13 312 0.0 1.6 0.00 0.00 0.00 92 1019.2
20260901194900 13 312 0.0 1.6 0.00 0.00 0.00 92 1019.2
20260901194525 13 312 0.0 1.6 0.00 0.00 0.00 92 1018.9
20260901194347 13 312 0.0 1.6 0.00 0.00 0.00 92 1019.2
20260901193830 14 312 0.0 1.6 0.00 0.00 0.00 91 1019.2
20260901193319 14 312 0.0 3.2 0.00 0.00 0.00 91 1019.2
20260901193046 14 312 0.0 1.6 0.00 0.00 0.00 91 1018.9
20260901192250 14 312 1.6 3.2 0.00 0.00 0.00 91 1019.2
20260901191513 14 312 1.6 4.8 0.00 0.00 0.00 91 1018.9
20260901191225 15 312 0.0 3.2 0.00 0.00 0.00 90 1019.2
20260901190156 15 312 0.0 0.0 0.00 0.00 0.00 90 1019.2
20260901190030 15 312 0.0 0.0 0.00 0.00 0.00 89 1018.9
20260901185642 15 312 0.0 0.0 0.00 0.00 0.00 89 1019.2
20260901184608 15 312 0.0 1.6 0.00 0.00 0.00 88 1019.2
20260901184544 15 312 0.0 1.6 0.00 0.00 0.00 88 1018.8
20260901184054 15 312 0.0 3.2 0.00 0.00 0.00 89 1019.1
20260901183121 15 312 0.0 0.0 0.00 0.00 0.00 87 1018.8
20260901182510 16 312 0.0 0.0 0.00 0.00 0.00 87 1019.1
20260901181521 16 312 0.0 0.0 0.00 0.00 0.00 85 1018.7
20260901180928 16 312 0.0 0.0 0.00 0.00 0.00 85 1018.9
20260901180415 16 312 0.0 0.0 0.00 0.00 0.00 84 1018.8
20260901180040 16 312 0.0 0.0 0.00 0.00 0.00 84 1018.5
20260901175900 17 312 0.0 0.0 0.00 0.00 0.00 84 1018.8
20260901175347 17 312 0.0 0.0 0.00 0.00 0.00 83 1018.7
20260901174834 17 312 0.0 0.0 0.00 0.00 0.00 82 1018.7
20260901174603 17 312 0.0 0.0 0.00 0.00 0.00 82 1018.3
20260901174318 17 312 0.0 0.0 0.00 0.00 0.00 81 1018.7
20260901173242 18 312 0.0 0.0 0.00 0.00 0.00 80 1018.6
20260901173012 18 312 0.0 0.0 0.00 0.00 0.00 79 1018.2
20260901172728 18 312 0.0 1.6 0.00 0.00 0.00 79 1018.5
20260901172216 18 312 0.0 3.2 0.00 0.00 0.00 78 1018.6
20260901171704 19 312 0.0 3.2 0.00 0.00 0.00 77 1018.6
20260901171548 18 312 0.0 3.2 0.00 0.00 0.00 76 1018.2
20260901171203 19 312 0.0 1.6 0.00 0.00 0.00 76 1018.6
20260901170634 19 312 0.0 1.6 0.00 0.00 0.00 76 1018.5
20260901170121 20 312 0.0 1.6 0.00 0.00 0.00 75 1018.5
20260901170100 19 312 0.0 1.6 0.00 0.00 0.00 75 1018.1
20260901165050 20 312 0.0 1.6 0.00 0.00 0.00 74 1018.3
20260901164532 20 312 0.0 3.2 0.00 0.00 0.00 74 1018.3
20260901164506 20 312 0.0 1.6 0.00 0.00 0.00 74 1018.0
20260901164031 20 312 0.0 3.2 0.00 0.00 0.00 72 1018.3
20260901163509 20 312 1.6 3.2 0.00 0.00 0.00 72 1018.5
20260901163049 20 312 0.0 3.2 0.00 0.00 0.00 71 1018.1
20260901162949 20 312 1.6 3.2 0.00 0.00 0.00 70 1018.5
20260901162435 20 312 0.0 3.2 0.00 0.00 0.00 69 1018.5
20260901161603 20 312 0.0 4.8 0.00 0.00 0.00 67 1018.1
20260901160416 21 313 3.2 8.0 0.00 0.00 0.00 66 1018.5
20260901160131 21 313 3.2 8.0 0.00 0.00 0.00 65 1018.0
20260901155851 21 308 1.6 8.0 0.00 0.00 0.00 65 1018.5
20260901155345 21 300 1.6 6.4 0.00 0.00 0.00 65 1018.3
20260901154836 21 300 3.2 9.7 0.00 0.00 0.00 64 1018.3
20260901154508 21 313 0.0 9.7 0.00 0.00 0.00 64 1018.1
20260901154330 21 313 3.2 9.7 0.00 0.00 0.00 64 1018.5
20260901153314 21 311 3.2 9.7 0.00 0.00 0.00 62 1018.3
20260901153045 21 319 1.6 8.0 0.00 0.00 0.00 64 1018.0
20260901152305 22 325 6.4 16.1 0.00 0.00 0.00 62 1018.2
20260901151800 22 308 4.8 16.1 0.00 0.00 0.00 62 1018.2
20260901151534 22 312 9.7 16.1 0.00 0.00 0.00 61 1017.8
20260901151248 22 323 4.8 12.9 0.00 0.00 0.00 63 1018.2
20260901150735 21 324 4.8 16.1 0.00 0.00 0.00 64 1018.1
20260901150236 21 313 6.4 16.1 0.00 0.00 0.00 62 1018.2
20260901150007 21 313 3.2 16.1 0.00 0.00 0.00 62 1017.7
20260901145720 21 306 8.0 16.1 0.00 0.00 0.00 61 1018.1
20260901145212 22 304 4.8 16.1 0.00 0.00 0.00 60 1018.1
20260901144709 22 311 4.8 14.5 0.00 0.00 0.00 60 1018.1
20260901144545 22 360 3.2 17.7 0.00 0.00 0.00 61 1017.8
20260901144206 22 321 6.4 20.9 0.00 0.00 0.00 60 1018.2
20260901143654 22 346 4.8 20.9 0.00 0.00 0.00 59 1018.1
20260901143018 22 360 1.6 12.9 0.00 0.00 0.00 59 1017.6
20260901142635 22 351 4.8 17.7 0.00 0.00 0.00 59 1018.0
20260901142126 22 295 8.0 20.9 0.00 0.00 0.00 59 1017.9
20260901141612 22 325 6.4 20.9 0.00 0.00 0.00 58 1017.9
20260901141548 22 315 8.0 20.9 0.00 0.00 0.00 58 1017.5
20260901141102 22 323 3.2 17.7 0.00 0.00 0.00 60 1018.0
20260901140559 22 303 3.2 17.7 0.00 0.00 0.00 59 1018.0
20260901140111 22 355 3.2 11.3 0.00 0.00 0.00 60 1018.0
20260901140034 22 355 3.2 9.7 0.00 0.00 0.00 60 1017.6
20260901135540 22 266 3.2 11.3 0.00 0.00 0.00 60 1018.0
20260901135039 22 331 4.8 12.9 0.00 0.00 0.00 57 1018.0
20260901134606 22 317 1.6 12.9 0.00 0.00 0.00 59 1017.6
20260901134529 22 319 4.8 12.9 0.00 0.00 0.00 58 1018.0
20260901134010 22 303 4.8 16.1 0.00 0.00 0.00 57 1017.9
20260901133500 22 261 4.8 16.1 0.00 0.00 0.00 56 1018.0
20260901133128 22 317 3.2 12.9 0.00 0.00 0.00 56 1017.6
20260901132947 23 301 4.8 12.9 0.00 0.00 0.00 56 1018.0
20260901132435 22 296 3.2 11.3 0.00 0.00 0.00 58 1017.9
20260901131924 22 239 4.8 14.5 0.00 0.00 0.00 58 1017.9
20260901131551 22 321 3.2 16.1 0.00 0.00 0.00 58 1017.5
20260901130911 22 333 8.0 17.7 0.00 0.00 0.00 56 1018.0
20260901130344 22 240 4.8 16.1 0.00 0.00 0.00 57 1018.0
20260901130013 22 319 6.4 12.9 0.00 0.00 0.00 55 1017.6
20260901125315 22 245 3.2 11.3 0.00 0.00 0.00 58 1018.0
20260901124803 22 323 3.2 19.3 0.00 0.00 0.00 59 1018.0
20260901124534 22 269 1.6 19.3 0.00 0.00 0.00 58 1017.7
20260901124249 22 319 4.8 19.3 0.00 0.00 0.00 57 1018.1
20260901123735 22 319 6.4 19.3 0.00 0.00 0.00 57 1018.0
20260901123056 22 355 6.4 20.9 0.00 0.00 0.00 55 1017.6
20260901122708 23 304 4.8 19.3 0.00 0.00 0.00 55 1018.0
20260901122155 23 294 3.2 16.1 0.00 0.00 0.00 56 1018.0
20260901121517 22 258 3.2 16.1 0.00 0.00 0.00 57 1017.6
20260901121127 22 306 4.8 16.1 0.00 0.00 0.00 56 1018.0
20260901120112 22 245 4.8 17.7 0.00 0.00 0.00 57 1018.1
20260901120034 22 244 9.7 17.7 0.00 0.00 0.00 57 1017.7
20260901115545 22 316 6.4 16.1 0.00 0.00 0.00 60 1018.1
20260901115033 22 238 6.4 16.1 0.00 0.00 0.00 60 1018.1
20260901114604 21 227 3.2 14.5 0.00 0.00 0.00 61 1017.7
20260901114523 21 241 6.4 16.1 0.00 0.00 0.00 64 1018.1
20260901114001 21 227 6.4 16.1 0.00 0.00 0.00 60 1018.1
20260901113439 21 253 6.4 12.9 0.00 0.00 0.00 60 1018.1
20260901113000 21 225 6.4 11.3 0.00 0.00 0.00 60 1017.7
20260901112413 21 247 4.8 11.3 0.00 0.00 0.00 61 1018.1
20260901111914 21 227 4.8 11.3 0.00 0.00 0.00 59 1018.1
20260901111542 21 227 4.8 11.3 0.00 0.00 0.00 58 1017.7
20260901111358 22 244 3.2 11.3 0.00 0.00 0.00 59 1018.1
20260901110844 22 248 4.8 17.7 0.00 0.00 0.00 62 1018.0
20260901110327 21 241 4.8 17.7 0.00 0.00 0.00 59 1018.0
20260901110058 21 226 1.6 12.9 0.00 0.00 0.00 61 1017.7
20260901105814 22 238 4.8 16.1 0.00 0.00 0.00 59 1018.0
20260901105300 22 243 3.2 16.1 0.00 0.00 0.00 57 1018.1
20260901104802 22 263 3.2 14.5 0.00 0.00 0.00 59 1018.0
20260901104619 22 308 1.6 14.5 0.00 0.00 0.00 60 1017.6